Tracking 29777 objects as of 6-Oct-2024
HD Live streaming from Space Station
objects crossing your sky now

COSMOS 1410

Track COSMOS 1410 now!
10-day predictions
COSMOS 1410 is classified as:


NORAD ID: 13589
Int'l Code: 1982-096A
Perigee: 1,499.4 km
Apogee: 1,508.3 km
Inclination: 82.6 °
Period: 115.9 minutes
Semi major axis: 7874 km
RCS: 11.571 m2 (large)
Launch date: September 24, 1982
Source: Commonwealth of Independent States (former USSR) (CIS)
Launch site: PLESETSK MISSILE AND SPACE COMPLEX (PKMTR)
Your satellite tracking list
Your tracking list is empty




NASA's NSSDC Master Catalog

Two Line Element Set (TLE):
1 13589U 82096A   24280.58420622  .00000004  00000-0 -44412-4 0  9990
2 13589  82.6070 130.8711 0005596 216.1532 157.7750 12.42338716907147
Source of the keplerian elements: AFSPC